DL8NDG-13 Weather Reports


time (UTC)temp
C
wind
direction
speed
KPH
gust
KPH
rain 1hr
cm
rain 24hr
cm
rain mn
cm
humidity
%
barometer
mb
20260507053043 10 172 3.2 12.9 0.00 0.76 0.10 83 1009.4
20260507051540 10 164 8.0 16.1 0.00 0.76 0.10 83 1009.3
20260507050100 9 167 6.4 12.9 0.00 0.76 0.10 83 1009.0
20260507044546 9 164 6.4 11.3 0.00 0.76 0.10 83 1008.9
20260507043031 9 360 1.6 9.7 0.00 0.76 0.10 83 1008.8
20260507041529 9 115 0.0 0.0 0.00 0.76 0.10 83 1008.6
20260507040028 9 115 0.0 0.0 0.00 0.76 0.10 83 1008.5
20260507034534 9 187 0.0 0.0 0.00 0.76 0.10 83 1008.5
20260507033031 9 186 0.0 0.0 0.00 0.76 0.10 83 1008.5
20260507031531 9 134 0.0 0.0 0.00 0.76 0.10 83 1008.5
20260507030026 10 121 0.0 0.0 0.00 0.76 0.10 83 1008.4
20260507024522 10 115 0.0 0.0 0.00 0.76 0.10 82 1008.3
20260507023021 10 116 0.0 0.0 0.00 0.76 0.10 82 1008.4
20260507021533 10 192 3.2 14.5 0.00 0.76 0.10 82 1008.3
20260507020022 10 201 4.8 9.7 0.00 0.76 0.10 82 1008.0
20260507014520 10 180 4.8 9.7 0.00 0.76 0.10 82 1008.0
20260507013013 10 360 4.8 12.9 0.03 0.76 0.10 82 1007.8
20260507011517 10 360 3.2 11.3 0.05 0.76 0.10 82 1007.8
20260507010027 10 173 6.4 17.7 0.05 0.76 0.10 82 1007.9
20260507004509 10 227 4.8 17.7 0.05 0.76 0.10 82 1007.8
20260507003006 11 173 12.9 19.3 0.03 0.71 0.08 81 1007.8
20260507001504 11 159 3.2 12.9 0.00 0.71 0.05 81 1007.8
20260507000004 11 191 6.4 12.9 0.03 0.71 0.05 81 1007.8
20260506234502 11 170 3.2 11.3 0.03 0.71 0.05 81 1007.8
20260506233002 11 169 4.8 11.3 0.03 0.71 0.05 81 1007.7
20260506231601 11 360 4.8 8.0 0.05 0.71 0.05 82 1007.7
20260506230100 11 170 6.4 11.3 0.03 0.69 0.03 82 1007.8
20260506224557 11 172 6.4 11.3 0.03 0.69 0.03 83 1007.5
20260506223100 11 173 4.8 17.7 0.03 0.69 0.03 83 1007.2
20260506221555 11 171 8.0 16.1 0.00 0.66 0.00 83 1007.2
20260506220049 11 175 6.4 14.5 0.00 0.66 0.00 83 1007.1
20260506214548 11 360 9.7 16.1 0.03 0.66 0.66 84 1007.2
20260506213047 11 200 6.4 16.1 0.03 0.66 0.66 84 1007.2
20260506211546 11 178 14.5 19.3 0.05 0.66 0.66 84 1006.9
20260506210046 11 159 9.7 19.3 0.05 0.66 0.66 84 1007.1
20260506204554 12 173 8.0 11.3 0.03 0.64 0.64 83 1006.7
20260506203042 12 171 6.4 9.7 0.00 0.61 0.61 84 1006.8
20260506201541 12 213 6.4 12.9 0.00 0.61 0.61 84 1006.4
20260506200044 12 205 1.6 8.0 0.00 0.61 0.61 84 1006.3
20260506194548 12 190 0.0 8.0 0.03 0.61 0.61 84 1006.2
20260506193037 12 191 0.0 9.7 0.10 0.61 0.61 84 1006.2
20260506191537 12 174 6.4 14.5 0.18 0.61 0.61 84 1006.0
20260506190039 12 122 0.0 0.0 0.28 0.61 0.61 85 1005.6
20260506184536 12 183 0.0 6.4 0.25 0.58 0.58 85 1005.3
20260506183038 13 160 1.6 11.3 0.18 0.51 0.51 85 1005.3
20260506181536 13 159 8.0 17.7 0.08 0.41 0.41 85 1005.3
20260506180033 13 194 3.2 8.0 0.00 0.33 0.33 86 1005.1
20260506174533 13 232 1.6 4.8 0.03 0.33 0.33 86 1004.6
20260506173032 13 44 0.0 4.8 0.05 0.33 0.33 86 1004.4
20260506171540 13 55 0.0 0.0 0.08 0.33 0.33 86 1003.9
20260506170035 13 55 0.0 0.0 0.33 0.33 0.33 86 1004.0
20260506164535 13 53 0.0 0.0 0.30 0.48 0.30 85 1004.2
20260506163129 14 52 0.0 1.6 0.28 0.46 0.28 85 1004.3
20260506161537 15 122 0.0 0.0 0.23 0.41 0.23 81 1004.3
20260506160040 16 121 0.0 0.0 0.00 0.18 0.00 76 1004.0
20260506154531 16 148 0.0 0.0 0.00 0.23 0.00 72 1003.9
20260506153025 16 169 0.0 0.0 0.00 0.23 0.00 71 1004.0
20260506151533 17 161 0.0 0.0 0.00 0.23 0.00 69 1004.0
20260506150030 18 148 3.2 14.5 0.00 0.23 0.00 64 1004.0
20260506144525 18 229 0.0 1.6 0.00 0.23 0.00 59 1003.7
20260506143037 18 213 3.2 14.5 0.00 0.23 0.00 58 1003.6
20260506141520 19 222 0.0 0.0 0.00 0.23 0.00 58 1003.6
20260506140020 18 242 0.0 9.7 0.00 0.23 0.00 58 1003.6
20260506134518 18 259 1.6 6.4 0.00 0.23 0.00 58 1003.6
20260506133020 19 222 1.6 11.3 0.00 0.23 0.00 59 1003.8
20260506131516 18 166 0.0 1.6 0.00 0.23 0.00 59 1003.9
20260506130014 18 207 4.8 9.7 0.00 0.23 0.00 60 1004.2
20260506124512 19 144 0.0 0.0 0.00 0.23 0.00 58 1004.2
20260506123010 19 165 0.0 0.0 0.00 0.23 0.00 57 1004.5
20260506121507 19 149 0.0 0.0 0.00 0.23 0.00 62 1004.4
20260506120006 18 166 0.0 0.0 0.00 0.23 0.00 60 1004.6
20260506114505 18 133 0.0 0.0 0.00 0.23 0.00 62 1004.6
20260506113007 19 146 0.0 0.0 0.00 0.23 0.00 60 1004.7
20260506111502 18 159 0.0 0.0 0.00 0.23 0.00 65 1004.8
20260506110104 18 176 0.0 0.0 0.00 0.23 0.00 65 1005.0
20260506104615 18 189 0.0 0.0 0.00 0.23 0.00 64 1005.0
20260506103053 17 192 0.0 9.7 0.00 0.23 0.00 69 1005.1
20260506101556 17 360 1.6 8.0 0.00 0.23 0.00 70 1005.2
20260506100047 17 360 0.0 0.0 0.00 0.23 0.00 71 1005.1
20260506094554 16 360 0.0 0.0 0.00 0.23 0.00 71 1005.2
20260506093046 16 360 0.0 0.0 0.00 0.23 0.00 76 1005.2
20260506091542 15 360 0.0 0.0 0.00 0.23 0.00 76 1005.3
20260506090038 15 360 0.0 0.0 0.00 0.23 0.00 78 1005.3
20260506084535 15 202 0.0 0.0 0.00 0.23 0.00 80 1005.2
20260506083034 15 203 0.0 0.0 0.00 0.23 0.00 79 1005.5
20260506081532 15 234 0.0 0.0 0.00 0.23 0.00 80 1005.4
20260506073023 13 165 0.0 0.0 0.00 0.23 0.00 86 1005.1
20260506071520 13 166 0.0 0.0 0.00 0.23 0.00 85 1005.0
20260506061552 11 236 0.0 0.0 0.00 0.23 0.00 80 1005.1